Overview Statistics Trail Chart Weather Telemetry Raw packets
 

This is the latest recevied weather packets stored in our database for station/object KF0WJA. If no packets are shown the sender has not sent any weather packets the latest 10 day(s).

<< 98 99 100 101 102 103 104 >>
Time Temp. Humidity Pressure Rain* Wind** Luminosity Snow
1787927683 23.33° C 70% 1023.4 hPa 0 mm - 186 W/m² -
1787927382 22.78° C 71% 1022.7 hPa 0 mm - 110 W/m² -
1787927078 22.78° C 71% 1022.8 hPa 0 mm - 108 W/m² -
1787926773 22.78° C 72% 1022.8 hPa 0 mm - 94 W/m² -
1787926472 22.22° C 72% 1023 hPa 0 mm - 74 W/m² -
1787926172 22.22° C 73% 1023 hPa 0 mm - 55 W/m² -
1787925871 22.22° C 73% 1022.9 hPa 0 mm - 55 W/m² -
1787925571 21.67° C 73% 1022.8 hPa 0 mm - 59 W/m² -
1787925266 21.67° C 74% 1022.9 hPa 0 mm - 64 W/m² -
1787924965 21.67° C 74% 1023 hPa 0 mm - 75 W/m² -
1787924660 21.67° C 74% 1023.1 hPa 0 mm - 100 W/m² -
1787924355 21.67° C 76% 1023.2 hPa 0 mm - 115 W/m² -
1787924050 21.11° C 77% 1023.1 hPa 0 mm - 116 W/m² -
1787923750 21.11° C 78% 1023.3 hPa 0 mm - 103 W/m² -
1787923445 20.56° C 79% 1023.4 hPa 0 mm - 83 W/m² -
1787923141 20.56° C 80% 1023 hPa 0 mm - 69 W/m² -
1787922836 20.56° C 79% 1023.4 hPa 0 mm - 49 W/m² -
1787922534 20.56° C 79% 1023.4 hPa 0 mm - 40 W/m² -
1787922234 20.56° C 78% 1023.2 hPa 0 mm - 42 W/m² -
1787921932 20.56° C 78% 1023.4 hPa 0 mm - 47 W/m² -
1787921626 20° C 81% 1023.5 hPa 0 mm - 44 W/m² -
1787921325 19.44° C 81% 1023.7 hPa 0 mm - 36 W/m² -
1787921022 19.44° C 82% 1023.7 hPa 0 mm - 34 W/m² -
1787920717 18.89° C 83% 1023.5 hPa 0 mm - 29 W/m² -
1787920416 18.89° C 83% 1023.8 hPa 0 mm - 28 W/m² -

* Rain latest hour (hover to see other rain measurements)
** Current wind speed in m/s (hover to see current wind gust speed)